EN

Hourly Weather Bukowiec

Today, 9 May, Sunday

Time Temperature Precipitation Wind Pressure Humidity
00:00 +3°C° 0 mm 1 mps 727 mmHg 86%
01:00 +3°C° 0 mm 1 mps 727 mmHg 84%
02:00 +3°C° 0 mm 1 mps 727 mmHg 86%
03:00 +2°C° 0 mm 2 mps 727 mmHg 88%
04:00 +1°C° 0 mm 2 mps 727 mmHg 90%
05:00 +4°C° 0 mm 2 mps 727 mmHg 81%
06:00 +6°C° 0 mm 2 mps 728 mmHg 73%
07:00 +8°C° 0 mm 2 mps 728 mmHg 65%
08:00 +10°C° 0 mm 3 mps 728 mmHg 59%
09:00 +11°C° 0 mm 4 mps 728 mmHg 53%
10:00 +13°C° 0 mm 5 mps 728 mmHg 47%
11:00 +13°C° 0 mm 5 mps 728 mmHg 48%
12:00 +14°C° 0 mm 5 mps 728 mmHg 49%
13:00 +14°C° 0 mm 5 mps 728 mmHg 51%
14:00 +14°C° 0 mm 5 mps 727 mmHg 53%
15:00 +14°C° 0 mm 5 mps 727 mmHg 56%
16:00 +14°C° 0 mm 5 mps 727 mmHg 58%
17:00 +12°C° 0 mm 4 mps 727 mmHg 64%
18:00 +11°C° 0 mm 4 mps 727 mmHg 70%
19:00 +8°C° 0 mm 4 mps 727 mmHg 76%
20:00 +9°C° 0 mm 3 mps 727 mmHg 79%
21:00 +8°C° 0 mm 3 mps 727 mmHg 81%
22:00 +7°C° 0 mm 3 mps 727 mmHg 84%
23:00 +7°C° 0 mm 3 mps 727 mmHg 84%

Tomorrow, 10 May, Monday

Time Temperature Precipitation Wind Pressure Humidity
00:00 +7°C° 0 mm 3 mps 727 mmHg 84%
01:00 +5°C° 0 mm 3 mps 726 mmHg 84%
02:00 +5°C° 0 mm 3 mps 726 mmHg 83%
03:00 +6°C° 0 mm 2 mps 726 mmHg 83%
04:00 +5°C° 0 mm 2 mps 726 mmHg 83%
05:00 +8°C° 0 mm 3 mps 726 mmHg 74%
06:00 +10°C° 0 mm 3 mps 726 mmHg 65%
07:00 +13°C° 0 mm 3 mps 726 mmHg 56%
08:00 +16°C° 0 mm 3 mps 726 mmHg 51%
09:00 +17°C° 0 mm 3 mps 726 mmHg 45%
10:00 +19°C° 0 mm 4 mps 726 mmHg 39%
11:00 +20°C° 0 mm 4 mps 726 mmHg 39%
12:00 +21°C° 0 mm 4 mps 726 mmHg 39%
13:00 +21°C° 0 mm 4 mps 725 mmHg 38%
14:00 +21°C° 0 mm 4 mps 725 mmHg 42%
15:00 +21°C° 0 mm 3 mps 725 mmHg 46%
16:00 +20°C° 0 mm 3 mps 725 mmHg 49%
17:00 +18°C° 0 mm 2 mps 725 mmHg 60%
18:00 +16°C° 0 mm 2 mps 725 mmHg 71%
19:00 +13°C° 0 mm 2 mps 725 mmHg 83%
20:00 +13°C° 0 mm 2 mps 725 mmHg 84%
21:00 +12°C° 0 mm 2 mps 725 mmHg 86%
22:00 +10°C° 0 mm 2 mps 725 mmHg 87%
23:00 +10°C° 0 mm 2 mps 724 mmHg 87%

Day after tomorrow, 11 May, Tuesday

Time Temperature Precipitation Wind Pressure Humidity
00:00 +10°C° 0 mm 2 mps 724 mmHg 86%
01:00 +10°C° 0 mm 2 mps 724 mmHg 86%
02:00 +10°C° 0 mm 2 mps 724 mmHg 85%
03:00 +9°C° 0 mm 2 mps 724 mmHg 85%
04:00 +9°C° 0 mm 2 mps 723 mmHg 84%
05:00 +13°C° 0 mm 2 mps 723 mmHg 77%
06:00 +15°C° 0 mm 2 mps 723 mmHg 69%
07:00 +19°C° 0 mm 1 mps 723 mmHg 61%
08:00 +19°C° 0 mm 2 mps 723 mmHg 56%
09:00 +21°C° 0 mm 2 mps 723 mmHg 50%
10:00 +24°C° 0 mm 2 mps 723 mmHg 44%
11:00 +24°C° 0 mm 2 mps 723 mmHg 43%
12:00 +25°C° 0 mm 2 mps 722 mmHg 42%
13:00 +26°C° 0 mm 3 mps 722 mmHg 41%
14:00 +25°C° 0 mm 3 mps 722 mmHg 45%
15:00 +24°C° 0 mm 3 mps 721 mmHg 49%
16:00 +22°C° 0 mm 3 mps 721 mmHg 53%
17:00 +20°C° 0 mm 2 mps 721 mmHg 65%
18:00 +17°C° 0 mm 2 mps 720 mmHg 76%
19:00 +15°C° 0 mm 1 mps 720 mmHg 88%
20:00 +14°C° 0 mm 1 mps 720 mmHg 89%
21:00 +13°C° 0 mm 1 mps 720 mmHg 91%
22:00 +12°C° 0 mm 1 mps 719 mmHg 93%
23:00 +12°C° 0 mm 1 mps 719 mmHg 93%

12 May, Wednesday

Time Temperature Precipitation Wind Pressure Humidity
00:00 +11°C° 0 mm 1 mps 719 mmHg 93%
01:00 +11°C° 0 mm 1 mps 719 mmHg 93%
02:00 +11°C° 0 mm 1 mps 718 mmHg 93%
03:00 +10°C° 0 mm 1 mps 718 mmHg 92%
04:00 +10°C° 0 mm 1 mps 718 mmHg 92%
05:00 +12°C° 0 mm 2 mps 718 mmHg 83%
06:00 +14°C° 0 mm 2 mps 717 mmHg 73%
07:00 +16°C° 0 mm 2 mps 717 mmHg 64%
08:00 +18°C° 0 mm 2 mps 717 mmHg 61%
09:00 +19°C° 0 mm 3 mps 717 mmHg 57%
10:00 +20°C° 0 mm 4 mps 717 mmHg 54%
11:00 +20°C° 0.1 mm 4 mps 717 mmHg 55%
12:00 +19°C° 0.1 mm 5 mps 716 mmHg 56%
13:00 +19°C° 0.1 mm 5 mps 716 mmHg 57%
14:00 +17°C° 0.1 mm 5 mps 716 mmHg 59%
15:00 +18°C° 0.1 mm 4 mps 715 mmHg 61%
16:00 +17°C° 0.1 mm 4 mps 715 mmHg 63%
17:00 +14°C° 0.1 mm 4 mps 715 mmHg 70%
18:00 +12°C° 0.1 mm 3 mps 715 mmHg 77%
19:00 +11°C° 0.1 mm 3 mps 714 mmHg 84%
20:00 +10°C° 0.1 mm 3 mps 714 mmHg 86%
21:00 +9°C° 0.1 mm 2 mps 714 mmHg 88%
22:00 +9°C° 0.1 mm 2 mps 714 mmHg 90%
23:00 +9°C° 0.1 mm 2 mps 714 mmHg 90%

13 May, Thursday

Time Temperature Precipitation Wind Pressure Humidity
00:00 +10°C° 0.1 mm 1 mps 713 mmHg 90%
01:00 +11°C° 0.1 mm 1 mps 713 mmHg 89%
02:00 +11°C° 0.3 mm 1 mps 713 mmHg 91%
03:00 +11°C° 0.3 mm 1 mps 713 mmHg 93%
04:00 +11°C° 0.3 mm 1 mps 712 mmHg 95%
05:00 +10°C° 0.5 mm 2 mps 713 mmHg 95%
06:00 +12°C° 0.5 mm 2 mps 713 mmHg 95%
07:00 +12°C° 0.5 mm 2 mps 713 mmHg 95%
08:00 +12°C° 0.5 mm 2 mps 713 mmHg 95%
09:00 +13°C° 0.5 mm 2 mps 713 mmHg 94%
10:00 +13°C° 0.5 mm 2 mps 713 mmHg 94%
11:00 +13°C° 0.3 mm 2 mps 713 mmHg 93%
12:00 +12°C° 0.3 mm 3 mps 714 mmHg 92%
13:00 +12°C° 0.3 mm 3 mps 714 mmHg 91%
14:00 +12°C° 0.1 mm 3 mps 714 mmHg 90%
15:00 +12°C° 0.1 mm 3 mps 714 mmHg 88%
16:00 +12°C° 0.1 mm 3 mps 714 mmHg 87%
17:00 +11°C° 0 mm 3 mps 715 mmHg 87%
18:00 +11°C° 0 mm 3 mps 715 mmHg 88%
19:00 +10°C° 0 mm 3 mps 715 mmHg 89%
20:00 +10°C° 0 mm 3 mps 715 mmHg 90%
21:00 +9°C° 0 mm 2 mps 715 mmHg 92%
22:00 +9°C° 0 mm 2 mps 716 mmHg 94%
23:00 +9°C° 0 mm 2 mps 716 mmHg 93%

14 May, Friday

Time Temperature Precipitation Wind Pressure Humidity
00:00 +8°C° 0 mm 3 mps 716 mmHg 93%
01:00 +8°C° 0 mm 3 mps 716 mmHg 92%
02:00 +9°C° 0 mm 3 mps 716 mmHg 93%
03:00 +9°C° 0 mm 3 mps 716 mmHg 93%
04:00 +9°C° 0 mm 2 mps 716 mmHg 93%
05:00 +10°C° 0 mm 3 mps 717 mmHg 89%
06:00 +10°C° 0 mm 3 mps 717 mmHg 86%
07:00 +11°C° 0 mm 3 mps 717 mmHg 82%
08:00 +11°C° 0.1 mm 3 mps 718 mmHg 79%
09:00 +12°C° 0.1 mm 3 mps 718 mmHg 77%
10:00 +13°C° 0.1 mm 3 mps 718 mmHg 74%
11:00 +13°C° 0.2 mm 3 mps 719 mmHg 75%
12:00 +13°C° 0.2 mm 3 mps 719 mmHg 76%
13:00 +13°C° 0.2 mm 3 mps 719 mmHg 77%
14:00 +12°C° 0.2 mm 3 mps 719 mmHg 79%
15:00 +12°C° 0.2 mm 3 mps 720 mmHg 81%
16:00 +12°C° 0.2 mm 3 mps 720 mmHg 84%
17:00 +12°C° 0 mm 2 mps 720 mmHg 87%
18:00 +10°C° 0 mm 2 mps 720 mmHg 91%
19:00 +9°C° 0 mm 2 mps 721 mmHg 94%
20:00 +9°C° 0 mm 2 mps 721 mmHg 95%
21:00 +8°C° 0 mm 2 mps 721 mmHg 96%
22:00 +9°C° 0 mm 1 mps 722 mmHg 97%
23:00 +9°C° 0 mm 1 mps 722 mmHg 97%
Show more

We Need Your Consent

Meteoprog and our Service Providers may store and access personal data such as cookies, device identifiers or other similar technologies on your device and process such data to personalise content and ads, as well as provide social media features and to analyse the traffic.

  • Store and/or access information on your device

    Cookies, device identifiers or other information can be stored or accessed on your device for the purposes indicated above.

  • Personalised ads and content, ad and content measurement, audience insights, and products development

    Ads and content can be personalised based on a profile. More data can be added to better personalise ads and content. Ad and content performance can be measured. Insights about the audience who saw the ads and content can be derived. Such data can be used to develop or improve user’s experience, systems and software.

By clicking ‘I Agree’ you will allow the use of indicated cookies, device identifiers, web beacons or other similar technologies. Your settings can be changed in the browser on your device.

For certain purposes, legitimate interests may be relied on, rather than consent. You can read more about this in our Privacy and Cookie Policy.